TREK05 RPLL-RPVA

Flight info

Callsign TREK05
Flight time 1h 1m
Altitude 23000
Route IPATA2R IPATA B462 ARREX ARREX2R
Aircraft C130/M-SDE2E3FGRY/H

Departure

Time 2026-05-04 01:33
Airport Ninoy Aquino International Airport (RPLL)

Arrival

Time 2026-05-04 02:35
Airport Daniel Z. Romualdez Airport (RPVA)
Time Latitude Longitude Altitude Speed Heading
2026-05-04 01:22 14.50579 121.00859 70 ft 0 kts 329°
2026-05-04 01:28 14.50577 121.00860 70 ft 0 kts 329°
2026-05-04 01:29 14.50579 121.00857 70 ft 3 kts 301°
2026-05-04 01:29 14.50562 121.00861 61 ft 7 kts 126°
2026-05-04 01:29 14.50513 121.00883 68 ft 7 kts 210°
2026-05-04 01:30 14.50498 121.00862 66 ft 2 kts 238°
2026-05-04 01:30 14.50488 121.00845 65 ft 8 kts 240°
2026-05-04 01:30 14.50431 121.00818 65 ft 11 kts 189°
2026-05-04 01:30 14.50350 121.00745 64 ft 23 kts 239°
2026-05-04 01:31 14.50284 121.00629 64 ft 16 kts 240°
2026-05-04 01:31 14.50235 121.00538 64 ft 13 kts 240°
2026-05-04 01:31 14.50194 121.00465 64 ft 11 kts 240°
2026-05-04 01:31 14.50162 121.00408 69 ft 8 kts 237°
2026-05-04 01:32 14.50135 121.00370 67 ft 5 kts 216°
2026-05-04 01:32 14.50109 121.00365 68 ft 3 kts 173°
2026-05-04 01:32 14.50097 121.00367 65 ft 2 kts 162°
2026-05-04 01:32 14.50030 121.00407 66 ft 11 kts 133°
2026-05-04 01:33 14.50073 121.00522 63 ft 39 kts 60°
2026-05-04 01:33 14.50312 121.00953 66 ft 97 kts 62°
2026-05-04 01:33 14.50729 121.01688 257 ft 127 kts 59°
2026-05-04 01:33 14.51283 121.02390 821 ft 131 kts 46°
2026-05-04 01:34 14.51880 121.03230 1254 ft 157 kts 60°
2026-05-04 01:34 14.52429 121.04249 1934 ft 167 kts 63°
2026-05-04 01:34 14.53015 121.05366 2512 ft 189 kts 63°
2026-05-04 01:34 14.53682 121.06607 3076 ft 205 kts 62°
2026-05-04 01:35 14.54398 121.07922 3640 ft 215 kts 62°
2026-05-04 01:35 14.55121 121.09299 4236 ft 222 kts 63°
2026-05-04 01:35 14.55856 121.10722 4877 ft 227 kts 63°
2026-05-04 01:35 14.56539 121.12202 5514 ft 231 kts 70°
2026-05-04 01:36 14.56924 121.13818 6160 ft 235 kts 88°
2026-05-04 01:36 14.56468 121.15450 6757 ft 245 kts 121°
2026-05-04 01:36 14.55193 121.16638 7379 ft 253 kts 146°
2026-05-04 01:36 14.53668 121.17562 8028 ft 255 kts 146°
2026-05-04 01:37 14.52149 121.18515 8697 ft 257 kts 145°
2026-05-04 01:37 14.50634 121.19549 9213 ft 264 kts 143°
2026-05-04 01:37 14.49145 121.20668 9863 ft 266 kts 140°
2026-05-04 01:37 14.47692 121.21855 10472 ft 267 kts 139°
2026-05-04 01:38 14.46263 121.23086 11107 ft 269 kts 137°
2026-05-04 01:38 14.44844 121.24353 11742 ft 270 kts 137°
2026-05-04 01:38 14.43441 121.25641 12381 ft 271 kts 136°
2026-05-04 01:38 14.42045 121.26951 13037 ft 271 kts 135°
2026-05-04 01:39 14.40659 121.28270 13701 ft 271 kts 135°
2026-05-04 01:39 14.39281 121.29603 14297 ft 271 kts 135°
2026-05-04 01:39 14.37907 121.30938 14885 ft 271 kts 135°
2026-05-04 01:39 14.36536 121.32275 15471 ft 271 kts 135°
2026-05-04 01:40 14.35172 121.33612 16060 ft 271 kts 134°
2026-05-04 01:40 14.33813 121.34946 16638 ft 270 kts 134°
2026-05-04 01:40 14.32450 121.36288 17231 ft 270 kts 135°
2026-05-04 01:40 14.31095 121.37622 17805 ft 269 kts 135°
2026-05-04 01:41 14.29741 121.38956 18373 ft 269 kts 134°
2026-05-04 01:41 14.28389 121.40291 18869 ft 269 kts 134°
2026-05-04 01:41 14.27043 121.41623 19364 ft 268 kts 135°
2026-05-04 01:41 14.25698 121.42949 19863 ft 267 kts 135°
2026-05-04 01:42 14.24358 121.44273 20351 ft 267 kts 135°
2026-05-04 01:42 14.23037 121.45577 20827 ft 266 kts 135°
2026-05-04 01:42 14.21708 121.46894 21297 ft 265 kts 136°
2026-05-04 01:42 14.20375 121.48208 21753 ft 265 kts 136°
2026-05-04 01:43 14.19043 121.49516 22207 ft 264 kts 136°
2026-05-04 01:43 14.17719 121.50819 22665 ft 263 kts 137°
2026-05-04 01:43 14.16395 121.52121 23112 ft 262 kts 137°
2026-05-04 01:43 14.15077 121.53417 23531 ft 262 kts 137°
2026-05-04 01:44 14.13758 121.54715 23887 ft 262 kts 137°
2026-05-04 01:44 14.12444 121.56009 24220 ft 262 kts 137°
2026-05-04 01:44 14.11126 121.57300 24550 ft 261 kts 137°
2026-05-04 01:44 14.09801 121.58599 24717 ft 270 kts 137°
2026-05-04 01:45 14.08330 121.60033 24089 ft 309 kts 137°
2026-05-04 01:45 14.06699 121.61616 23699 ft 334 kts 137°
2026-05-04 01:45 14.03155 121.65085 22966 ft 364 kts 137°
2026-05-04 01:46 14.01318 121.66882 22997 ft 365 kts 137°
2026-05-04 01:46 13.99477 121.68694 23005 ft 367 kts 136°
2026-05-04 01:46 13.97633 121.70511 22998 ft 367 kts 136°
2026-05-04 01:46 13.95784 121.72327 23002 ft 367 kts 136°
2026-05-04 01:47 13.93934 121.74143 23003 ft 367 kts 136°
2026-05-04 01:47 13.92087 121.75953 23002 ft 367 kts 136°
2026-05-04 01:47 13.90237 121.77765 23003 ft 367 kts 136°
2026-05-04 01:47 13.88388 121.79579 23002 ft 367 kts 136°
2026-05-04 01:48 13.86626 121.81482 23007 ft 367 kts 132°
2026-05-04 01:48 13.84930 121.83455 23003 ft 368 kts 131°
2026-05-04 01:48 13.83264 121.85448 23002 ft 368 kts 131°
2026-05-04 01:48 13.81604 121.87450 22998 ft 368 kts 131°
2026-05-04 01:49 13.79950 121.89456 22999 ft 368 kts 130°
2026-05-04 01:49 13.78302 121.91464 23002 ft 368 kts 130°
2026-05-04 01:49 13.76651 121.93484 23001 ft 368 kts 130°
2026-05-04 01:49 13.75005 121.95501 22995 ft 368 kts 130°
2026-05-04 01:50 13.73359 121.97520 23001 ft 368 kts 130°
2026-05-04 01:50 13.71712 121.99537 22997 ft 368 kts 130°
2026-05-04 01:50 13.70064 122.01555 22999 ft 369 kts 130°
2026-05-04 01:50 13.68439 122.03546 23001 ft 369 kts 130°
2026-05-04 01:51 13.66793 122.05570 23000 ft 369 kts 130°
2026-05-04 01:51 13.65147 122.07592 22998 ft 369 kts 130°
2026-05-04 01:51 13.63501 122.09610 22997 ft 369 kts 130°
2026-05-04 01:51 13.61846 122.11638 23005 ft 369 kts 130°
2026-05-04 01:52 13.60194 122.13659 22996 ft 369 kts 130°
2026-05-04 01:52 13.58540 122.15680 22999 ft 370 kts 130°
2026-05-04 01:52 13.56882 122.17704 22998 ft 370 kts 130°
2026-05-04 01:52 13.55226 122.19725 23001 ft 370 kts 130°
2026-05-04 01:53 13.53570 122.21747 23001 ft 370 kts 130°
2026-05-04 01:53 13.51914 122.23769 23002 ft 370 kts 130°
2026-05-04 01:53 13.50259 122.25789 23001 ft 370 kts 130°
2026-05-04 01:53 13.48600 122.27814 22999 ft 370 kts 130°
2026-05-04 01:54 13.46943 122.29833 22996 ft 370 kts 130°
2026-05-04 01:54 13.45282 122.31859 22998 ft 370 kts 130°
2026-05-04 01:54 13.43621 122.33882 22999 ft 370 kts 130°
2026-05-04 01:54 13.41960 122.35906 22998 ft 370 kts 130°
2026-05-04 01:55 13.40302 122.37929 22996 ft 371 kts 130°
2026-05-04 01:55 13.38641 122.39954 22996 ft 371 kts 130°
2026-05-04 01:55 13.36979 122.41976 22997 ft 371 kts 130°
2026-05-04 01:55 13.35318 122.43998 23000 ft 370 kts 130°
2026-05-04 01:56 13.33657 122.46022 23007 ft 370 kts 130°
2026-05-04 01:56 13.31996 122.48044 22999 ft 370 kts 130°
2026-05-04 01:56 13.30334 122.50066 22999 ft 370 kts 130°
2026-05-04 01:56 13.28672 122.52087 23000 ft 370 kts 130°
2026-05-04 01:57 13.27011 122.54106 23000 ft 370 kts 130°
2026-05-04 01:57 13.25349 122.56125 23003 ft 371 kts 130°
2026-05-04 01:57 13.23687 122.58145 23001 ft 370 kts 130°
2026-05-04 01:57 13.22024 122.60170 22999 ft 371 kts 130°
2026-05-04 01:58 13.20363 122.62188 22999 ft 371 kts 130°
2026-05-04 01:58 13.18700 122.64208 23000 ft 371 kts 130°
2026-05-04 01:58 13.17036 122.66230 22999 ft 370 kts 130°
2026-05-04 01:58 13.15373 122.68248 22999 ft 370 kts 130°
2026-05-04 01:59 13.13713 122.70264 23001 ft 370 kts 130°
2026-05-04 01:59 13.12052 122.72282 23000 ft 370 kts 130°
2026-05-04 01:59 13.10392 122.74298 22999 ft 370 kts 130°
2026-05-04 01:59 13.08732 122.76314 23000 ft 370 kts 130°
2026-05-04 02:00 13.07074 122.78325 23001 ft 369 kts 130°
2026-05-04 02:00 13.05418 122.80334 23001 ft 369 kts 130°
2026-05-04 02:00 13.03758 122.82348 22998 ft 369 kts 130°
2026-05-04 02:00 13.02099 122.84361 22997 ft 369 kts 130°
2026-05-04 02:01 13.00441 122.86369 22995 ft 369 kts 130°
2026-05-04 02:01 12.98782 122.88377 23001 ft 369 kts 130°
2026-05-04 02:01 12.97125 122.90384 23000 ft 369 kts 130°
2026-05-04 02:01 12.95470 122.92389 22993 ft 369 kts 130°
2026-05-04 02:02 12.93812 122.94398 22993 ft 369 kts 130°
2026-05-04 02:02 12.92159 122.96402 22992 ft 369 kts 130°
2026-05-04 02:02 12.90525 122.98382 22993 ft 368 kts 130°
2026-05-04 02:02 12.88851 123.00408 22999 ft 368 kts 130°
2026-05-04 02:03 12.87212 123.02389 23001 ft 368 kts 130°
2026-05-04 02:03 12.85556 123.04390 22994 ft 368 kts 130°
2026-05-04 02:03 12.84069 123.06193 22998 ft 367 kts 130°
2026-05-04 02:03 12.82422 123.08189 22996 ft 368 kts 130°
2026-05-04 02:04 12.80768 123.10190 22999 ft 368 kts 130°
2026-05-04 02:04 12.79114 123.12190 23002 ft 368 kts 130°
2026-05-04 02:04 12.77465 123.14190 22994 ft 368 kts 130°
2026-05-04 02:04 12.75809 123.16193 22996 ft 368 kts 130°
2026-05-04 02:05 12.74155 123.18192 22994 ft 368 kts 130°
2026-05-04 02:05 12.72499 123.20193 22995 ft 368 kts 130°
2026-05-04 02:05 12.70841 123.22193 22995 ft 368 kts 130°
2026-05-04 02:05 12.69181 123.24197 23001 ft 368 kts 130°
2026-05-04 02:06 12.67525 123.26194 23001 ft 369 kts 130°
2026-05-04 02:06 12.65864 123.28196 22998 ft 369 kts 130°
2026-05-04 02:06 12.64205 123.30195 22993 ft 369 kts 130°
2026-05-04 02:06 12.62545 123.32196 22993 ft 369 kts 130°
2026-05-04 02:07 12.60886 123.34196 22998 ft 369 kts 130°
2026-05-04 02:07 12.59221 123.36196 23000 ft 369 kts 130°
2026-05-04 02:07 12.57557 123.38192 22994 ft 368 kts 130°
2026-05-04 02:07 12.55899 123.40187 22995 ft 368 kts 130°
2026-05-04 02:08 12.54239 123.42187 22992 ft 368 kts 130°
2026-05-04 02:08 12.52581 123.44186 22999 ft 368 kts 130°
2026-05-04 02:08 12.50923 123.46184 22997 ft 368 kts 130°
2026-05-04 02:08 12.49266 123.48181 22993 ft 368 kts 130°
2026-05-04 02:09 12.48170 123.49500 22997 ft 368 kts 130°
2026-05-04 02:09 12.45949 123.52174 22992 ft 369 kts 130°
2026-05-04 02:09 12.44289 123.54175 22995 ft 369 kts 130°
2026-05-04 02:09 12.42627 123.56172 22992 ft 369 kts 130°
2026-05-04 02:10 12.40968 123.58170 22990 ft 369 kts 130°
2026-05-04 02:10 12.39310 123.60169 22989 ft 368 kts 130°
2026-05-04 02:10 12.37662 123.62173 22992 ft 368 kts 130°
2026-05-04 02:10 12.36016 123.64185 22990 ft 368 kts 130°
2026-05-04 02:11 12.34376 123.66201 22877 ft 372 kts 129°
2026-05-04 02:11 12.32709 123.68248 22681 ft 377 kts 129°
2026-05-04 02:11 12.31600 123.69614 22603 ft 378 kts 129°
2026-05-04 02:11 12.29321 123.72421 22041 ft 390 kts 129°
2026-05-04 02:12 12.27573 123.74576 21596 ft 398 kts 129°
2026-05-04 02:12 12.26399 123.76022 21315 ft 402 kts 129°
2026-05-04 02:12 12.24601 123.78238 20901 ft 407 kts 129°
2026-05-04 02:12 12.22787 123.80471 20502 ft 410 kts 129°
2026-05-04 02:13 12.20956 123.82724 20114 ft 413 kts 129°
2026-05-04 02:13 12.18520 123.85727 19622 ft 416 kts 129°
2026-05-04 02:13 12.16673 123.88000 19262 ft 417 kts 129°
2026-05-04 02:13 12.14822 123.90284 18913 ft 417 kts 128°
2026-05-04 02:14 12.12965 123.92566 18580 ft 418 kts 128°
2026-05-04 02:14 12.11710 123.94112 18351 ft 418 kts 128°
2026-05-04 02:14 12.09857 123.96400 17991 ft 418 kts 128°
2026-05-04 02:14 12.08031 123.98659 17622 ft 418 kts 128°
2026-05-04 02:15 12.05547 124.01713 17119 ft 417 kts 128°
2026-05-04 02:15 12.04294 124.03255 16815 ft 418 kts 128°
2026-05-04 02:15 12.02469 124.05507 16387 ft 415 kts 128°
2026-05-04 02:15 12.00612 124.07803 15966 ft 413 kts 128°
2026-05-04 02:16 11.98787 124.10052 15546 ft 410 kts 128°
2026-05-04 02:16 11.97002 124.12251 15146 ft 407 kts 128°
2026-05-04 02:16 11.95198 124.14463 14832 ft 403 kts 128°
2026-05-04 02:16 11.93416 124.16653 14535 ft 398 kts 128°
2026-05-04 02:17 11.91661 124.18806 14246 ft 391 kts 128°
2026-05-04 02:17 11.89933 124.20933 13949 ft 387 kts 128°
2026-05-04 02:17 11.88220 124.23039 13652 ft 384 kts 128°
2026-05-04 02:17 11.86525 124.25126 13326 ft 381 kts 128°
2026-05-04 02:18 11.84839 124.27197 13132 ft 376 kts 128°
2026-05-04 02:18 11.83183 124.29226 13155 ft 367 kts 128°
2026-05-04 02:18 11.81555 124.31228 12986 ft 365 kts 128°
2026-05-04 02:18 11.80482 124.32542 12985 ft 361 kts 128°
2026-05-04 02:19 11.78349 124.35159 12985 ft 356 kts 128°
2026-05-04 02:19 11.77307 124.36439 12981 ft 354 kts 128°
2026-05-04 02:19 11.75213 124.39008 12979 ft 350 kts 128°
2026-05-04 02:19 11.73657 124.40914 12978 ft 349 kts 128°
2026-05-04 02:20 11.72110 124.42812 12975 ft 347 kts 128°
2026-05-04 02:20 11.70565 124.44704 12972 ft 346 kts 128°
2026-05-04 02:20 11.69026 124.46592 12969 ft 346 kts 128°
2026-05-04 02:20 11.67489 124.48474 12968 ft 345 kts 128°
2026-05-04 02:21 11.65956 124.50357 12970 ft 345 kts 128°
2026-05-04 02:21 11.64424 124.52238 12968 ft 345 kts 128°
2026-05-04 02:21 11.62889 124.54119 12965 ft 345 kts 128°
2026-05-04 02:21 11.61347 124.55997 12967 ft 345 kts 128°
2026-05-04 02:22 11.59830 124.57849 12969 ft 344 kts 128°
2026-05-04 02:22 11.58301 124.59717 12967 ft 344 kts 128°
2026-05-04 02:22 11.56767 124.61594 12968 ft 344 kts 128°
2026-05-04 02:22 11.55239 124.63466 12969 ft 343 kts 128°
2026-05-04 02:23 11.53712 124.65339 12965 ft 343 kts 128°
2026-05-04 02:23 11.52168 124.67191 12963 ft 343 kts 131°
2026-05-04 02:23 11.50435 124.68875 12963 ft 344 kts 137°
2026-05-04 02:23 11.48596 124.70442 12965 ft 345 kts 139°
2026-05-04 02:24 11.46705 124.71947 12964 ft 345 kts 141°
2026-05-04 02:24 11.44783 124.73404 12964 ft 345 kts 142°
2026-05-04 02:24 11.42833 124.74836 12965 ft 345 kts 142°
2026-05-04 02:24 11.40873 124.76244 12965 ft 345 kts 143°
2026-05-04 02:25 11.38896 124.77634 12959 ft 345 kts 143°
2026-05-04 02:25 11.36877 124.79045 12457 ft 358 kts 144°
2026-05-04 02:25 11.34783 124.80496 11878 ft 370 kts 144°
2026-05-04 02:25 11.32627 124.81984 11303 ft 377 kts 144°
2026-05-04 02:26 11.30442 124.83491 10748 ft 382 kts 144°
2026-05-04 02:26 11.28247 124.85004 10219 ft 381 kts 145°
2026-05-04 02:26 11.25877 124.86200 9684 ft 380 kts 161°
2026-05-04 02:26 11.23400 124.86883 9126 ft 358 kts 165°
2026-05-04 02:27 11.21041 124.87475 8465 ft 342 kts 165°
2026-05-04 02:27 11.18757 124.88018 7803 ft 332 kts 166°
2026-05-04 02:27 11.16533 124.88522 7158 ft 323 kts 166°
2026-05-04 02:27 11.14361 124.88998 6510 ft 316 kts 166°
2026-05-04 02:28 11.12232 124.89456 5861 ft 310 kts 166°
2026-05-04 02:28 11.10142 124.89908 5206 ft 305 kts 166°
2026-05-04 02:28 11.08089 124.90357 4557 ft 299 kts 167°
2026-05-04 02:28 11.06153 124.91025 3907 ft 291 kts 147°
2026-05-04 02:29 11.04741 124.92435 3294 ft 282 kts 121°
2026-05-04 02:29 11.04042 124.94280 2799 ft 279 kts 104°
2026-05-04 02:29 11.03632 124.96190 2416 ft 272 kts 99°
2026-05-04 02:29 11.03388 124.98060 2092 ft 262 kts 94°
2026-05-04 02:30 11.03439 124.99877 1750 ft 256 kts 75°
2026-05-04 02:30 11.04347 125.01375 1609 ft 244 kts 42°
2026-05-04 02:30 11.05785 125.02082 1587 ft 221 kts
2026-05-04 02:30 11.07231 125.02111 1572 ft 194 kts
2026-05-04 02:31 11.08488 125.02065 1581 ft 170 kts 359°
2026-05-04 02:31 11.09649 125.02026 1573 ft 164 kts
2026-05-04 02:31 11.10799 125.01996 1573 ft 167 kts
2026-05-04 02:31 11.11039 125.01996 1568 ft 167 kts
2026-05-04 02:32 11.11807 125.02014 1573 ft 161 kts
2026-05-04 02:32 11.12916 125.02094 1580 ft 158 kts
2026-05-04 02:32 11.13986 125.02161 1663 ft 148 kts
2026-05-04 02:33 11.15009 125.02070 1514 ft 149 kts 355°
2026-05-04 02:33 11.16067 125.02019 1233 ft 156 kts
2026-05-04 02:33 11.17055 125.02029 1062 ft 131 kts
2026-05-04 02:33 11.17949 125.02137 876 ft 131 kts 12°
2026-05-04 02:34 11.18826 125.02318 788 ft 127 kts 14°
2026-05-04 02:34 11.19712 125.02511 612 ft 135 kts 13°
2026-05-04 02:34 11.20638 125.02638 371 ft 129 kts
2026-05-04 02:34 11.21500 125.02673 142 ft 119 kts
2026-05-04 02:35 11.22277 125.02743 19 ft 99 kts
2026-05-04 02:35 11.22737 125.02776 17 ft 21 kts
2026-05-04 02:35 11.22770 125.02763 16 ft 9 kts 287°
2026-05-04 02:35 11.22742 125.02702 17 ft 1 kts 228°
2026-05-04 02:36 11.22732 125.02693 19 ft 4 kts 202°
2026-05-04 02:36 11.22715 125.02689 16 ft 0 kts 204°
2026-05-04 02:36 11.22712 125.02684 17 ft 3 kts 261°
2026-05-04 02:36 11.22729 125.02658 17 ft 0 kts 308°